Location: Newark
(49.8667°N, 4.3500°E)
Time: 12:05:13
(UTC+00:00)

ISS - Visible Passes

Search period start: 20 July 2019 00:00
Search period end: 30 July 2019 00:00
Orbit: 409 x 418 km, 51.6° (Epoch: 20 July)

Date Brightness Start Highest point End Pass type
(mag) Time Alt. Az. Time Alt. Az. Time Alt. Az.
20 Jul -3.9 01:04:09 10° WNW 01:07:26 59° SSW 01:09:06 26° SE visible
20 Jul-1.302:45:51S02:45:51S02:41:11Wvisible
20 Jul -3.9 21:01:14 10° WSW 21:04:34 76° SSE 21:07:54 10° ENE visible
20 Jul -3.3 22:38:02 10° W 22:41:21 61° N 22:44:40 10° E visible
21 Jul -3.9 00:14:49 10° WNW 00:18:01 77° WSW 00:18:01 77° WSW visible
21 Jul -3.4 21:48:39 10° W 21:51:59 64° N 21:55:18 10° ENE visible
21 Jul -3.8 23:25:29 10° WNW 23:28:50 80° NNE 23:29:24 58° E visible
22 Jul -3.5 20:59:16 10° W 21:02:36 73° N 21:05:57 10° ENE visible
22 Jul -3.5 22:36:08 10° WNW 22:39:29 68° N 22:41:10 26° E visible
23 Jul -1.7 00:12:53 10° WNW 00:13:58 18° W 00:13:58 18° W visible
23 Jul -3.3 21:46:45 10° W 21:50:04 62° N 21:53:07 12° E visible
23 Jul -3.0 23:23:30 10° WNW 23:25:54 42° W 23:25:54 42° W visible
24 Jul -3.3 20:57:20 10° W 21:00:40 62° N 21:03:58 10° E visible
24 Jul -3.9 22:34:08 10° WNW 22:37:29 87° SSW 22:37:56 64° ESE visible
25 Jul -3.3 20:07:54 10° W 20:11:15 66° N 20:14:35 10° ENE visible
25 Jul -3.7 21:44:45 10° WNW 21:48:06 76° NNE 21:50:00 23° E visible
25 Jul -1.7 23:21:34 10° W 23:22:48 19° W 23:22:48 19° W visible
26 Jul -3.4 20:55:21 10° WNW 20:58:41 66° N 21:02:01 10° E visible
26 Jul -3.3 22:32:05 10° WNW 22:34:56 46° SW 22:34:56 46° SW visible
27 Jul -3.9 21:42:40 10° WNW 21:46:01 71° SSW 21:47:04 39° SE visible
28 Jul -3.8 20:53:15 10° WNW 20:56:37 88° NNE 20:59:14 15° ESE visible
28 Jul -2.0 22:30:12 10° W 22:32:03 22° WSW 22:32:03 22° WSW visible
29 Jul -3.6 20:03:50 10° WNW 20:07:11 73° NNE 20:10:31 10° E visible
29 Jul -3.1 21:40:37 10° W 21:43:45 38° SSW 21:44:15 35° S visible
